[[{"header":{"parameterUnit":"m.s-1","parameterCategory":1,"la1":30.2991,"la2":30.254,"lo1":-89.0895,"lo2":-89.0444,"dy":0.0017,"dx":0.0017,"nx":28,"ny":28,"refTime":"2024-09-03T03:00:00:Z","depth":0,"parameterNumber":2,"parameterNumberName":"U-component_of_WINDS"},"data":[0,0,0,0,0,0,0,0,0,0,0,0,0,0,0,0,0,0,0,0,0,0,0,0,0,0,0,0,0,0,0,0,0,0,0,0,0,0,0,0,0,0,0,0,0,0,0,0,0,0,0,0,0,0,0,0,0,0,-4.2525,-4.2526,0,-4.2612,-4.2613,-4.2614,-4.2588,-4.2587,-4.2585,-4.2583,-4.2669,-4.2672,-4.2676,0,0,0,0,0,0,0,0,0,0,0,0,0,-4.2336,-4.234,-4.2525,-4.2526,-4.2527,-4.2612,-4.2613,-4.2614,-4.2589,-4.2586,-4.2584,-4.2582,-4.2667,-4.2672,-4.2677,0,0,0,0,0,0,0,0,0,0,0,0,0,-4.242,-4.2341,-4.2525,-4.2525,-4.2526,-4.2611,-4.2613,-4.2614,-4.2589,-4.2586,-4.2584,-4.2581,-4.2666,-4.2672,-4.2677,-4.2767,0,0,-4.2695,-4.2698,0,0,0,0,0,0,0,0,-4.2415,-4.2427,-4.2524,-4.2525,-4.2526,-4.2587,-4.2578,-4.2666,-4.259,-4.2565,-4.2583,-4.258,-4.2643,-4.2651,-4.2673,-4.2771,-4.2775,-4.2696,-4.2699,-4.2702,-4.2704,0,0,0,0,0,0,0,-4.241,-4.2423,-4.2559,-4.2525,-4.2527,-4.252,-4.2529,-4.2594,-4.2618,-4.2567,-4.2565,-4.2576,-4.2643,-4.2667,-4.2675,-4.2776,-4.2696,-4.2701,-4.2705,-4.2707,-4.2955,-4.2958,0,0,0,0,0,0,-4.2403,-4.2419,-4.2556,-4.2562,-4.2463,-4.2526,-4.2536,-4.257,-4.2617,-4.2622,-4.2578,-4.2575,-4.2658,-4.2668,-4.2678,-4.2787,-4.2702,-4.2708,-4.2711,-4.2952,-4.2956,-4.2959,0,0,0,0,0,0,-4.2399,-4.2416,-4.2553,-4.249,-4.2507,-4.2532,-4.257,-4.2573,-4.2597,-4.2626,-4.263,-4.2598,-4.2657,-4.2669,-4.2746,-4.2789,-4.271,-4.2716,-4.2949,-4.2953,-4.2958,-4.3005,0,0,0,0,0,0,-4.2394,-4.2415,-4.2449,-4.2491,-4.251,-4.262,-4.2573,-4.2577,-4.2607,-4.2603,-4.2646,-4.265,-4.2656,-4.2737,-4.2752,-4.2796,-4.272,-4.2945,-4.2951,-4.2956,-4.3,-4.3011,-4.302,0,0,0,0,0,-4.2387,-4.2457,-4.2451,-4.2467,-4.2554,-4.2622,-4.2633,-4.2639,-4.2611,-4.2646,-4.2665,-4.2649,-4.2783,-4.2745,-4.2761,-4.2808,-4.2942,-4.2949,-4.2956,-4.2995,-4.3009,-4.302,0,0,0,0,0,0,-4.2417,-4.2463,-4.2456,-4.2542,-4.2579,-4.2618,-4.2661,-4.2653,-4.2698,-4.2692,-4.2697,-4.2707,-4.2785,-4.2805,-4.2762,-4.2899,-4.2858,-4.2869,-4.2883,-4.2896,-4.2906,-4.2898,-4.2725,0,0,0,0,0,-4.2435,-4.2487,-4.2524,-4.2596,-4.2615,-4.2636,-4.2666,-4.2668,-4.2706,-4.2721,-4.2745,-4.2782,-4.2833,-4.2866,-4.2914,-4.3004,-4.3013,-4.3044,-4.3054,-4.3063,-4.3071,-4.3121,-4.3135,-4.2982,-4.2982,-4.2982,0,0,-4.2469,-4.2501,-4.2533,-4.2603,-4.2632,-4.2686,-4.2649,-4.2707,-4.2747,-4.2729,-4.2803,-4.2823,-4.2865,-4.2949,-4.2987,-4.2967,-4.3116,-4.3071,-4.3078,-4.3081,-4.3129,-4.3144,-4.3157,-4.2987,-4.2986,-4.2985,0,0,-4.256,-4.259,-4.2653,-4.2684,-4.273,-4.2743,-4.2759,-4.2801,-4.2814,-4.2889,-4.2877,-4.2926,-4.3013,-4.3043,-4.307,-4.3178,-4.3165,-4.3194,-4.3246,-4.3295,-4.3307,-4.3317,-4.3355,-4.3369,-4.3202,-4.3202,-4.3202,0,-4.2597,-4.2678,-4.2687,-4.2747,-4.2779,-4.2768,-4.2833,-4.2862,-4.2921,-4.2942,-4.292,-4.3031,-4.3059,-4.315,-4.3177,-4.3199,-4.3217,-4.3187,-4.3304,-4.3315,-4.3325,-4.3362,-4.3376,-4.3205,-4.3205,-4.3205,-4.3205,0,-4.2722,-4.2779,-4.2825,-4.2884,-4.2921,-4.2983,-4.3001,-4.3038,-4.3038,-4.3055,-4.3132,-4.3166,-4.3221,-4.3244,-4.3243,-4.3336,-4.3323,-4.3303,-4.3262,-4.3343,-4.3377,-4.3391,-4.321,-4.3209,-4.3208,-4.3207,0,0,-4.2829,-4.2895,-4.2912,-4.2939,-4.2991,-4.3035,-4.3098,-4.3154,-4.3185,-4.3227,-4.328,-4.3356,-4.3339,-4.337,-4.3374,-4.3417,-4.35,-4.3392,-4.3393,-4.341,-4.3605,-4.3618,-4.3634,-4.3494,-4.3496,-4.3499,-4.3601,0,-4.2924,-4.3035,-4.3046,-4.3145,-4.3199,-4.3192,-4.3247,-4.3284,-4.3303,-4.335,-4.337,-4.3424,-4.3398,-4.3417,-4.3459,-4.3481,-4.3539,-4.3474,-4.3542,-4.3544,-4.3529,-4.3652,-4.3665,-4.376,-4.3615,-4.3617,-4.3619,0,-4.3047,-4.3095,-4.32,-4.3246,-4.3269,-4.3318,-4.3372,-4.3418,-4.3461,-4.3472,-4.3509,-4.3508,-4.3573,-4.3533,-4.3623,-4.3578,-4.3608,-4.3623,-4.3627,-4.3631,-4.3584,-4.3658,-4.3791,-4.3804,-4.364,-4.3638,-4.3637,0,-4.3114,-4.3205,-4.328,-4.3304,-4.336,-4.3395,-4.3419,-4.346,-4.3494,-4.3542,-4.3564,-4.3618,-4.3647,-4.3689,-4.3703,-4.3672,-4.3793,-4.3753,-4.3803,-4.3803,-4.3826,-4.3824,-4.3963,-4.3848,-4.3848,-4.3848,-4.3847,0,-4.3217,-4.3281,-4.3311,-4.3357,-4.3429,-4.3443,-4.3514,-4.3537,-4.3575,-4.3625,-4.3623,-4.367,-4.3687,-4.3738,-4.375,-4.3823,-4.3836,-4.3846,-4.3848,-4.3845,-4.3844,-4.3862,-4.3855,-4.3852,-4.3851,-4.385,-4.3849,0,-4.3302,-4.3325,-4.3406,-4.3454,-4.3468,-4.3519,-4.356,-4.3604,-4.3624,-4.3688,-4.3704,-4.3734,-4.3793,-4.3813,-4.3884,-4.3893,-4.3978,-4.3975,-4.3963,-4.3963,-4.4011,-4.4006,-4.4165,-4.4187,-4.4059,-4.4061,-4.4062,0,-4.3365,-4.3415,-4.3469,-4.3503,-4.353,-4.3585,-4.3621,-4.3638,-4.3674,-4.373,-4.3768,-4.3828,-4.3876,-4.3972,-4.4,-4.4055,-4.4052,-4.4105,-4.406,-4.4057,-4.4052,-4.4048,-4.4053,-4.4112,-4.4113,-4.4114,-4.4115,0,-4.3474,-4.3484,-4.3535,-4.3592,-4.3635,-4.368,-4.3723,-4.3752,-4.3775,-4.3817,-4.3879,-4.3917,-4.3992,-4.4051,-4.4108,-4.4134,-4.4129,-4.413,-4.4144,-4.414,-4.4131,-4.4136,-4.3984,-4.4125,-4.4124,-4.4123,-4.4123,-4.4122,-4.3549,-4.3594,-4.364,-4.3698,-4.3733,-4.3775,-4.3819,-4.3846,-4.3898,-4.3961,-4.3968,-4.4035,-4.408,-4.4157,-4.4186,-4.4238,-4.4223,-4.4244,-4.4249,-4.4253,-4.4257,-4.4125,-4.4249,-4.4249,-4.4248,-4.4248,-4.4248,0,-4.3657,-4.3688,-4.3741,-4.3803,-4.385,-4.3844,-4.3893,-4.3931,-4.3991,-4.4034,-4.4082,-4.4154,-4.4213,-4.4247,-4.4306,-4.4342,-4.4341,-4.4357,-4.4353,-4.4359,-4.4267,-4.4248,-4.4356,-4.4356,-4.4356,-4.4356,-4.4356,-4.4356,-4.3719,-4.3794,-4.381,-4.3903,-4.3933,-4.3999,-4.4028,-4.4066,-4.4101,-4.4182,-4.4231,-4.4254,-4.4294,-4.4356,-4.441,-4.4419,-4.444,-4.4457,-4.4464,-4.4377,-4.4365,-4.4355,-4.4337,-4.4462,-4.4462,-4.4552,-4.4552,-4.4553]},{"header":{"parameterUnit":"m.s-1","parameterCategory":1,"la1":30.2991,"la2":30.254,"lo1":-89.0895,"lo2":-89.0444,"dy":0.0017,"dx":0.0017,"nx":28,"ny":28,"refTime":"2024-09-03T03:00:00:Z","depth":0,"parameterNumber":3,"parameterNumberName":"V-component_of_WINDS"},"data":[0,0,0,0,0,0,0,0,0,0,0,0,0,0,0,0,0,0,0,0,0,0,0,0,0,0,0,0,0,0,0,0,0,0,0,0,0,0,0,0,0,0,0,0,0,0,0,0,0,0,0,0,0,0,0,0,0,0,2.5266,2.5266,0,2.5282,2.5282,2.5282,2.5273,2.5273,2.5272,2.5272,2.5286,2.5287,2.5288,0,0,0,0,0,0,0,0,0,0,0,0,0,2.5228,2.5229,2.5266,2.5266,2.5266,2.5282,2.5282,2.5282,2.5273,2.5273,2.5272,2.5272,2.5286,2.5287,2.5288,0,0,0,0,0,0,0,0,0,0,0,0,0,2.5244,2.5229,2.5266,2.5264,2.5264,2.5282,2.5282,2.5282,2.5273,2.5273,2.5272,2.5271,2.5286,2.5287,2.5288,2.5309,0,0,2.5292,2.5292,0,0,0,0,0,0,0,0,2.5243,2.5246,2.5264,2.5264,2.5264,2.5275,2.5274,2.5291,2.5273,2.527,2.5272,2.5271,2.5283,2.5284,2.5289,2.5309,2.531,2.5292,2.5293,2.5293,2.5294,0,0,0,0,0,0,0,2.5242,2.5245,2.5272,2.5264,2.5264,2.5262,2.5264,2.5277,2.528,2.527,2.5269,2.5271,2.5283,2.5288,2.5289,2.531,2.5292,2.5293,2.5294,2.5294,2.535,2.5351,0,0,0,0,0,0,2.5241,2.5244,2.5271,2.5272,2.5252,2.5263,2.5265,2.5272,2.528,2.528,2.5272,2.5271,2.5286,2.5288,2.5289,2.5314,2.5293,2.5294,2.5295,2.5349,2.535,2.5351,0,0,0,0,0,0,2.524,2.5244,2.5271,2.5258,2.5261,2.5265,2.5272,2.5273,2.5277,2.5281,2.5281,2.5276,2.5285,2.5288,2.5304,2.5315,2.5295,2.5296,2.5348,2.5349,2.535,2.5364,0,0,0,0,0,0,2.5239,2.5244,2.5251,2.5258,2.5262,2.5285,2.5273,2.5273,2.5279,2.5278,2.5285,2.5286,2.5285,2.5303,2.5306,2.5316,2.5297,2.5347,2.5349,2.535,2.5363,2.5365,2.5368,0,0,0,0,0,2.5238,2.5254,2.5251,2.5255,2.5272,2.5286,2.5288,2.5287,2.528,2.5288,2.5291,2.5285,2.5314,2.5304,2.5308,2.5319,2.5347,2.5348,2.535,2.5361,2.5365,2.5368,0,0,0,0,0,0,2.5246,2.5254,2.5252,2.527,2.5278,2.5284,2.5294,2.5291,2.53,2.5298,2.5297,2.5299,2.5316,2.5319,2.5309,2.534,2.5329,2.5331,2.5336,2.534,2.5342,2.5341,2.5298,0,0,0,0,0,2.525,2.5261,2.5268,2.5284,2.5288,2.529,2.5296,2.5296,2.5303,2.5306,2.531,2.5317,2.5327,2.5334,2.5344,2.5364,2.5365,2.5373,2.5376,2.5378,2.538,2.5391,2.5395,2.5356,2.5356,2.5356,0,0,2.5258,2.5264,2.5271,2.5285,2.5291,2.5303,2.5293,2.5305,2.5314,2.5307,2.5323,2.5327,2.5335,2.5353,2.5362,2.5356,2.5391,2.538,2.5382,2.5382,2.5393,2.5397,2.54,2.5358,2.5357,2.5357,0,0,2.5279,2.5285,2.5299,2.5305,2.5314,2.5316,2.532,2.5328,2.533,2.5347,2.5342,2.5353,2.5371,2.5377,2.5382,2.5409,2.5404,2.5412,2.5425,2.5437,2.544,2.5442,2.5451,2.5455,2.5414,2.5414,2.5414,0,2.5287,2.5305,2.5306,2.5319,2.5326,2.5323,2.5337,2.5343,2.5355,2.5359,2.5354,2.5378,2.5382,2.5403,2.541,2.5414,2.5418,2.541,2.5439,2.5442,2.5444,2.5453,2.5457,2.5415,2.5415,2.5415,2.5415,0,2.5315,2.5328,2.5338,2.5351,2.5359,2.5373,2.5376,2.5384,2.5384,2.5387,2.5404,2.5411,2.5422,2.5427,2.5426,2.5448,2.5445,2.5439,2.5428,2.5449,2.5457,2.546,2.5416,2.5416,2.5416,2.5415,0,0,2.5339,2.5354,2.5357,2.5364,2.5375,2.5384,2.5399,2.5411,2.5418,2.5427,2.5439,2.5456,2.5452,2.5458,2.5458,2.5468,2.5489,2.5462,2.5462,2.5466,2.5514,2.5517,2.5521,2.5487,2.5488,2.5488,2.5513,0,2.536,2.5385,2.5388,2.541,2.5422,2.5421,2.5433,2.5442,2.5446,2.5456,2.5461,2.5472,2.5466,2.547,2.548,2.5484,2.5498,2.5483,2.5497,2.5498,2.5494,2.5525,2.5528,2.5551,2.5516,2.5517,2.5517,0,2.5387,2.5398,2.5422,2.5433,2.5439,2.545,2.5462,2.5473,2.5483,2.5485,2.5493,2.5493,2.5508,2.5498,2.5519,2.5508,2.5515,2.5518,2.5519,2.552,2.5508,2.5526,2.5559,2.5562,2.5522,2.5522,2.5522,0,2.5402,2.5423,2.544,2.5446,2.5459,2.5467,2.5473,2.5483,2.5491,2.5502,2.5507,2.5519,2.5526,2.5536,2.5538,2.5531,2.556,2.555,2.5562,2.5561,2.5566,2.5565,2.56,2.5572,2.5572,2.5572,2.5572,0,2.5424,2.5439,2.5447,2.5458,2.5475,2.5478,2.5495,2.55,2.5509,2.5521,2.5521,2.5532,2.5535,2.5547,2.555,2.5567,2.557,2.5572,2.5572,2.5572,2.5571,2.5575,2.5573,2.5573,2.5573,2.5573,2.5573,0,2.5442,2.5448,2.5467,2.548,2.5483,2.5495,2.5505,2.5516,2.5521,2.5536,2.5539,2.5547,2.5561,2.5565,2.5582,2.5584,2.5604,2.5603,2.5601,2.56,2.5612,2.561,2.5649,2.5654,2.5624,2.5624,2.5624,0,2.5456,2.5467,2.5481,2.549,2.5496,2.551,2.5518,2.5523,2.5532,2.5545,2.5554,2.5569,2.558,2.5603,2.561,2.5623,2.5622,2.5635,2.5624,2.5623,2.5621,2.562,2.5622,2.5636,2.5636,2.5637,2.5637,0,2.5479,2.5482,2.5495,2.5509,2.552,2.5531,2.5542,2.5548,2.5555,2.5565,2.558,2.5589,2.5607,2.5622,2.5636,2.5642,2.564,2.5641,2.5644,2.5642,2.564,2.5641,2.5605,2.5639,2.5639,2.5639,2.5639,2.5639,2.5495,2.5506,2.5518,2.5532,2.5541,2.5552,2.5563,2.557,2.5583,2.5598,2.5601,2.5617,2.5628,2.5647,2.5654,2.5667,2.5663,2.5668,2.5669,2.567,2.5671,2.564,2.5669,2.5669,2.5669,2.5669,2.5669,0,2.5518,2.5527,2.554,2.5556,2.5568,2.5567,2.558,2.5589,2.5604,2.5615,2.5627,2.5645,2.5659,2.5668,2.5682,2.5691,2.5691,2.5695,2.5693,2.5695,2.5673,2.5669,2.5695,2.5695,2.5695,2.5695,2.5695,2.5695,2.5532,2.555,2.5555,2.5578,2.5586,2.5602,2.561,2.562,2.5629,2.5649,2.5661,2.5667,2.5678,2.5693,2.5707,2.5709,2.5714,2.5718,2.572,2.5699,2.5696,2.5694,2.5689,2.5719,2.5719,2.5741,2.5741,2.5741]}]]